[[{"header":{"parameterUnit":"m.s-1","parameterCategory":1,"la1":30.2991,"la2":30.254,"lo1":-89.0895,"lo2":-89.0444,"dy":0.0017,"dx":0.0017,"nx":28,"ny":28,"refTime":"2025-02-07T03:00:00:Z","depth":0,"parameterNumber":2,"parameterNumberName":"U-component_of_WINDS"},"data":[0,0,0,0,0,0,0,0,0,0,0,0,0,0,0,0,0,0,0,0,0,0,0,0,0,0,0,0,0,0,0,0,0,0,0,0,0,0,0,0,0,0,0,0,0,0,0,0,0,0,0,0,0,0,0,0,0,0,-1.5882,-1.5882,0,-1.5891,-1.5891,-1.5891,-1.5861,-1.586,-1.5859,-1.5859,-1.5866,-1.5867,-1.5868,0,0,0,0,0,0,0,0,0,0,0,0,0,-1.584,-1.5841,-1.5882,-1.5882,-1.5882,-1.5891,-1.5891,-1.5891,-1.5861,-1.586,-1.5859,-1.5858,-1.5866,-1.5867,-1.5868,0,0,0,0,0,0,0,0,0,0,0,0,0,-1.5854,-1.5841,-1.5882,-1.5869,-1.5868,-1.5891,-1.5891,-1.5891,-1.5862,-1.586,-1.5859,-1.5858,-1.5866,-1.5867,-1.5869,-1.5905,0,0,-1.5873,-1.5874,0,0,0,0,0,0,0,0,-1.5854,-1.5856,-1.5871,-1.587,-1.5869,-1.5874,-1.5879,-1.5895,-1.5862,-1.5864,-1.5859,-1.5857,-1.587,-1.5871,-1.5875,-1.5905,-1.5905,-1.5873,-1.5874,-1.5875,-1.5875,0,0,0,0,0,0,0,-1.5853,-1.5855,-1.5885,-1.5871,-1.587,-1.5862,-1.5863,-1.5882,-1.5874,-1.5864,-1.5861,-1.5863,-1.5869,-1.5874,-1.5875,-1.5905,-1.5873,-1.5875,-1.5876,-1.5876,-1.5965,-1.5966,0,0,0,0,0,0,-1.5854,-1.5855,-1.5885,-1.5886,-1.5858,-1.5864,-1.5865,-1.5873,-1.5874,-1.5873,-1.5864,-1.5862,-1.5872,-1.5873,-1.5875,-1.5917,-1.5875,-1.5876,-1.5877,-1.5963,-1.5965,-1.5967,0,0,0,0,0,0,-1.5853,-1.5857,-1.5885,-1.587,-1.5873,-1.5866,-1.5876,-1.5874,-1.5879,-1.5874,-1.5873,-1.5871,-1.5871,-1.5873,-1.5898,-1.5917,-1.5877,-1.5878,-1.5962,-1.5964,-1.5966,-1.6001,0,0,0,0,0,0,-1.5852,-1.5856,-1.587,-1.587,-1.5874,-1.5907,-1.5877,-1.5875,-1.5882,-1.5879,-1.588,-1.5879,-1.587,-1.5895,-1.5899,-1.5918,-1.588,-1.596,-1.5963,-1.5965,-1.5998,-1.6004,-1.6009,0,0,0,0,0,-1.585,-1.5879,-1.5871,-1.5875,-1.5891,-1.5908,-1.591,-1.59,-1.5884,-1.5897,-1.5894,-1.5879,-1.5915,-1.5898,-1.5902,-1.5922,-1.5959,-1.5962,-1.5965,-1.5995,-1.6003,-1.6009,0,0,0,0,0,0,-1.5881,-1.5879,-1.587,-1.59,-1.5905,-1.5903,-1.592,-1.5908,-1.5917,-1.5913,-1.59,-1.5901,-1.5927,-1.5927,-1.5909,-1.5957,-1.5934,-1.5938,-1.5955,-1.5962,-1.5968,-1.5967,-1.5881,0,0,0,0,0,-1.5891,-1.5906,-1.5904,-1.593,-1.5933,-1.5926,-1.5934,-1.5926,-1.593,-1.5931,-1.593,-1.5934,-1.5947,-1.5955,-1.5966,-1.5998,-1.5998,-1.6014,-1.602,-1.6024,-1.6028,-1.6044,-1.6051,-1.5977,-1.5977,-1.5977,0,0,-1.5913,-1.5913,-1.5923,-1.5937,-1.5939,-1.5954,-1.5928,-1.5945,-1.5956,-1.5934,-1.5956,-1.5956,-1.596,-1.5989,-1.6001,-1.5989,-1.6048,-1.6028,-1.6032,-1.6033,-1.6048,-1.6055,-1.6062,-1.5979,-1.5979,-1.5979,0,0,-1.5959,-1.5961,-1.5984,-1.5987,-1.5992,-1.5987,-1.5993,-1.5994,-1.5993,-1.6015,-1.5999,-1.6012,-1.6033,-1.6037,-1.6041,-1.609,-1.6076,-1.6095,-1.6123,-1.6139,-1.6145,-1.615,-1.6167,-1.6173,-1.6098,-1.6098,-1.6098,0,-1.5984,-1.6007,-1.5997,-1.6015,-1.6021,-1.6003,-1.6025,-1.6029,-1.6037,-1.6041,-1.6028,-1.6055,-1.6056,-1.6085,-1.6097,-1.6102,-1.6107,-1.6093,-1.6145,-1.615,-1.6155,-1.617,-1.6177,-1.61,-1.61,-1.61,-1.61,0,-1.6038,-1.6054,-1.6071,-1.608,-1.6088,-1.6108,-1.6101,-1.6111,-1.6103,-1.6099,-1.6123,-1.6124,-1.6135,-1.6142,-1.6133,-1.617,-1.6162,-1.6148,-1.6124,-1.6164,-1.6179,-1.6185,-1.6103,-1.6102,-1.6102,-1.6101,0,0,-1.6101,-1.6105,-1.6112,-1.6115,-1.612,-1.6132,-1.6152,-1.6163,-1.6171,-1.6178,-1.6193,-1.6212,-1.6199,-1.6205,-1.6197,-1.6212,-1.6249,-1.6195,-1.6195,-1.6204,-1.6288,-1.6298,-1.6305,-1.6241,-1.6242,-1.6243,-1.6288,0,-1.6146,-1.618,-1.6172,-1.6205,-1.6219,-1.6203,-1.622,-1.6224,-1.6222,-1.6234,-1.6232,-1.6245,-1.6227,-1.623,-1.6244,-1.6242,-1.6266,-1.6239,-1.6254,-1.6255,-1.6252,-1.6313,-1.6323,-1.6365,-1.6293,-1.6294,-1.6295,0,-1.6202,-1.6211,-1.6246,-1.6249,-1.6254,-1.627,-1.6279,-1.6291,-1.6296,-1.6294,-1.63,-1.629,-1.6309,-1.6287,-1.6313,-1.6294,-1.6301,-1.6301,-1.6302,-1.6302,-1.6276,-1.6313,-1.6378,-1.6384,-1.6304,-1.6303,-1.6302,0,-1.6244,-1.6265,-1.6289,-1.6293,-1.6296,-1.6307,-1.6309,-1.6313,-1.632,-1.6329,-1.6333,-1.6344,-1.635,-1.6358,-1.6351,-1.6336,-1.6378,-1.6355,-1.6376,-1.6376,-1.6384,-1.6383,-1.645,-1.6391,-1.639,-1.639,-1.639,0,-1.6294,-1.6315,-1.6308,-1.6322,-1.6346,-1.6337,-1.636,-1.636,-1.6364,-1.6378,-1.6364,-1.6378,-1.6368,-1.638,-1.6375,-1.6397,-1.64,-1.6398,-1.6396,-1.6398,-1.6398,-1.64,-1.6397,-1.6392,-1.6392,-1.6391,-1.6391,0,-1.6344,-1.6339,-1.6364,-1.6366,-1.6367,-1.6384,-1.6385,-1.6398,-1.6396,-1.6414,-1.6417,-1.6413,-1.6427,-1.6421,-1.6436,-1.6432,-1.646,-1.6455,-1.6458,-1.6456,-1.6477,-1.6474,-1.6546,-1.6554,-1.6491,-1.6492,-1.6493,0,-1.6375,-1.6391,-1.6395,-1.6404,-1.6407,-1.6421,-1.6428,-1.642,-1.6429,-1.6436,-1.6448,-1.6461,-1.6471,-1.6494,-1.6492,-1.6503,-1.6497,-1.6521,-1.6498,-1.65,-1.6496,-1.6494,-1.6495,-1.6525,-1.6526,-1.6527,-1.6527,0,-1.643,-1.6428,-1.6439,-1.645,-1.646,-1.6468,-1.6475,-1.6483,-1.6476,-1.6486,-1.65,-1.6508,-1.6523,-1.6535,-1.6546,-1.6547,-1.6536,-1.6535,-1.654,-1.6541,-1.6542,-1.6541,-1.6469,-1.6533,-1.6532,-1.6532,-1.6531,-1.6531,-1.6471,-1.6485,-1.649,-1.6503,-1.6508,-1.6515,-1.6527,-1.6527,-1.6539,-1.655,-1.6545,-1.6562,-1.6566,-1.6579,-1.6582,-1.6595,-1.6585,-1.6593,-1.6594,-1.6596,-1.6598,-1.6542,-1.6597,-1.6596,-1.6596,-1.6596,-1.6596,0,-1.6525,-1.6527,-1.654,-1.6551,-1.6561,-1.6551,-1.6558,-1.6567,-1.6582,-1.6588,-1.6598,-1.6614,-1.6627,-1.6627,-1.6638,-1.6648,-1.6643,-1.6651,-1.6649,-1.665,-1.6607,-1.66,-1.6655,-1.6655,-1.6655,-1.6655,-1.6655,-1.6655,-1.6554,-1.6576,-1.6574,-1.6599,-1.6601,-1.6617,-1.6623,-1.6629,-1.6633,-1.6652,-1.6663,-1.6663,-1.6666,-1.6678,-1.6689,-1.6688,-1.6692,-1.6702,-1.67,-1.6659,-1.6653,-1.6647,-1.6641,-1.6704,-1.6704,-1.6742,-1.6742,-1.6742]},{"header":{"parameterUnit":"m.s-1","parameterCategory":1,"la1":30.2991,"la2":30.254,"lo1":-89.0895,"lo2":-89.0444,"dy":0.0017,"dx":0.0017,"nx":28,"ny":28,"refTime":"2025-02-07T03:00:00:Z","depth":0,"parameterNumber":3,"parameterNumberName":"V-component_of_WINDS"},"data":[0,0,0,0,0,0,0,0,0,0,0,0,0,0,0,0,0,0,0,0,0,0,0,0,0,0,0,0,0,0,0,0,0,0,0,0,0,0,0,0,0,0,0,0,0,0,0,0,0,0,0,0,0,0,0,0,0,0,1.9925,1.9926,0,2.0003,2.0004,2.0005,2.0061,2.0061,2.0062,2.0062,2.014,2.0141,2.0143,0,0,0,0,0,0,0,0,0,0,0,0,0,1.9827,1.9828,1.9925,1.9926,1.9927,2.0003,2.0004,2.0005,2.0061,2.0061,2.0062,2.0063,2.0139,2.0141,2.0143,0,0,0,0,0,0,0,0,0,0,0,0,0,1.9883,1.9829,1.9925,1.9964,1.9969,2.0003,2.0004,2.0005,2.0061,2.0061,2.0062,2.0063,2.0139,2.0141,2.0143,2.0144,0,0,2.0151,2.0152,0,0,0,0,0,0,0,0,1.988,1.9887,1.9958,1.9962,1.9967,2.0023,1.9998,2.0052,2.0061,2.0026,2.0062,2.0063,2.01,2.0106,2.0119,2.0148,2.0151,2.0151,2.0152,2.0154,2.0154,0,0,0,0,0,0,0,1.9876,1.9884,1.9956,1.9959,1.9964,1.9979,1.9987,2.0008,2.0058,2.0029,2.0033,2.0042,2.0103,2.0116,2.0121,2.0152,2.0151,2.0153,2.0155,2.0156,2.0191,2.0191,0,0,0,0,0,0,1.9866,1.988,1.9954,1.9958,1.9924,1.998,1.999,2.0004,2.0058,2.0067,2.0041,2.0044,2.0112,2.0118,2.0124,2.0132,2.0153,2.0156,2.0157,2.0192,2.0191,2.0191,0,0,0,0,0,0,1.9864,1.9872,1.9951,1.9921,1.9932,1.9981,1.9997,2.0005,2.0019,2.0067,2.0076,2.0046,2.0113,2.0121,2.014,2.0135,2.0157,2.0159,2.0192,2.0192,2.0191,2.0145,0,0,0,0,0,0,1.9861,1.9871,1.9871,1.992,1.9933,1.9965,1.9996,2.0006,2.0023,2.0028,2.0074,2.0082,2.0114,2.0136,2.0143,2.0139,2.0161,2.0193,2.0192,2.0191,2.0147,2.0143,2.0139,0,0,0,0,0,1.9857,1.9853,1.9871,1.9879,1.9934,1.9964,1.9972,2.0009,2.0023,2.0024,2.0056,2.0081,2.0135,2.0138,2.0145,2.0142,2.0194,2.0192,2.0191,2.0149,2.0144,2.0139,0,0,0,0,0,0,1.98,1.986,1.988,1.9892,1.9923,1.9973,1.9976,2.0001,2.0027,2.0031,2.0075,2.0085,2.0101,2.0124,2.0126,2.0149,2.0168,2.0168,2.0133,2.0128,2.0124,2.0119,2.0163,0,0,0,0,0,1.9789,1.9809,1.986,1.9866,1.9881,1.9926,1.994,1.9967,2.0,2.0012,2.0045,2.0076,2.0101,2.0116,2.0141,2.0151,2.0164,2.0154,2.0149,2.0146,2.0146,2.0157,2.0154,2.0187,2.0187,2.0187,0,0,1.9766,1.9802,1.9811,1.9856,1.9882,1.9903,1.9936,1.9954,1.997,2.0015,2.0037,2.0062,2.01,2.0116,2.0125,2.0136,2.014,2.0144,2.0141,2.0143,2.0155,2.0152,2.0149,2.0186,2.0186,2.0186,0,0,1.9735,1.9763,1.9773,1.9801,1.9842,1.9873,1.9875,1.9923,1.9943,1.9965,2.0001,2.002,2.006,2.0088,2.0106,2.0091,2.0117,2.0098,2.0077,2.0087,2.0085,2.0083,2.008,2.0078,2.0098,2.0098,2.0098,0,1.9701,1.9733,1.9775,1.9793,1.9813,1.9857,1.9869,1.9893,1.994,1.9953,1.9965,2.002,2.0048,2.0073,2.007,2.0083,2.0089,2.0093,2.0082,2.008,2.0079,2.0077,2.0075,2.0095,2.0096,2.0096,2.0096,0,1.9691,1.9713,1.9716,1.9763,1.9783,1.9797,1.9843,1.9859,1.9885,1.9915,1.994,1.9976,2.0011,2.0019,2.0043,2.0049,2.0055,2.0073,2.0093,2.0073,2.0072,2.0071,2.0092,2.0093,2.0094,2.0094,0,0,1.9623,1.9697,1.9697,1.9721,1.9772,1.979,1.9808,1.9844,1.9858,1.989,1.9908,1.9943,1.9963,1.9984,2.0013,2.0022,2.0012,2.004,2.0042,2.0035,2.0024,2.001,2.0008,2.0029,2.0029,2.0029,2.0021,0,1.9602,1.9637,1.9678,1.9699,1.9722,1.9766,1.9783,1.9816,1.9846,1.987,1.9903,1.9928,1.995,1.9965,1.9976,2.001,2.001,2.0011,2.0047,2.0048,2.0037,2.0007,1.9991,1.9982,2.0021,2.0021,2.002,0,1.958,1.9613,1.9637,1.9691,1.9702,1.9715,1.9754,1.9776,1.9817,1.9838,1.9865,1.9896,1.9919,1.9937,1.9971,1.9971,1.9989,2.0009,2.0009,2.0014,2.0033,2.0012,1.998,1.9979,2.002,2.002,2.002,0,1.9532,1.9581,1.9604,1.9622,1.9684,1.9694,1.972,1.9761,1.9782,1.9816,1.983,1.9866,1.9885,1.9913,1.9954,1.9963,1.9985,2.0005,2.0004,2.0003,2.0006,2.0005,1.9977,2.0016,2.0016,2.0016,2.0016,0,1.9504,1.9517,1.9583,1.9597,1.9615,1.9662,1.9679,1.9709,1.9747,1.9768,1.9808,1.9828,1.988,1.9907,1.9939,1.9964,1.9972,1.9991,1.9999,1.9988,1.9985,2.0,2.0002,2.0015,2.0015,2.0016,2.0016,0,1.9452,1.9496,1.9524,1.9582,1.9597,1.9608,1.9658,1.9674,1.9708,1.9735,1.9744,1.9796,1.983,1.9874,1.992,1.9942,1.9964,1.9976,1.995,1.9956,1.9953,1.9953,1.9933,1.9934,1.997,1.997,1.997,0,1.9431,1.9443,1.9504,1.9522,1.9548,1.9576,1.9598,1.9647,1.9668,1.9718,1.9729,1.9766,1.9798,1.9849,1.9892,1.9929,1.9943,1.9934,1.9949,1.9938,1.9945,1.9945,1.9947,1.993,1.9929,1.9929,1.9928,0,1.9391,1.9414,1.9445,1.9485,1.9511,1.9544,1.9579,1.9591,1.9648,1.967,1.9706,1.9731,1.9781,1.9818,1.9861,1.9889,1.9919,1.9924,1.9926,1.9914,1.9899,1.991,1.9942,1.9924,1.9924,1.9924,1.9925,1.9925,1.9356,1.937,1.9417,1.9451,1.9483,1.9516,1.9535,1.9573,1.9604,1.9649,1.9676,1.9711,1.9755,1.9817,1.9844,1.9873,1.9885,1.9887,1.9888,1.9888,1.9885,1.9895,1.9881,1.9881,1.9882,1.9882,1.9882,0,1.932,1.9353,1.9384,1.9434,1.9461,1.9489,1.953,1.9552,1.9583,1.9622,1.9654,1.9697,1.9734,1.9781,1.9822,1.9837,1.9852,1.9846,1.9845,1.9852,1.9872,1.9867,1.9833,1.9833,1.9833,1.9833,1.9833,1.9833,1.9304,1.9332,1.936,1.9405,1.9438,1.9474,1.9496,1.9528,1.956,1.9606,1.9638,1.9669,1.9713,1.9758,1.9794,1.9807,1.9821,1.9812,1.9829,1.9846,1.985,1.9854,1.985,1.9814,1.9814,1.9807,1.9807,1.9807]}]]